EHI
0 0 1 2 1 1 2 2 4 6 5 2 0 0 0 0 1 3 5 5 4 4 5 4 2 1 0 0 0 0 0 0 0 0 0 0 0 0 0 0 0 0 0
1 1 2 2 1 1 3 3 3 5 4 1 0 0 0 0 1 2 3 3 4 5 6 5 3 2 0 0 0 0 0 0 0 0 0 0 0 0 0 0 0 0 0
2 1 1 1 1 1 2 2 2 3 2 0 0 0 0 0 1 1 1 1 2 4 6 5 4 3 1 0 0 0 1 1 1 0 0 0 0 0 0 0 0 0 0
1 1 1 0 0 0 0 1 1 1 0 0 0 0 0 0 1 0 0 0 0 1 2 3 3 2 1 0 0 0 1 1 1 1 0 0 0 0 0 0 0 0 0
1 1 1 1 1 0 0 1 2 1 0 0 0 0 0 0 0 0 0 0 0 1 1 1 2 1 0 0 0 0 1 0 1 1 1 0 0 0 0 0 0 0 0
2 2 1 1 1 0 1 3 3 2 0 0 0 0 0 0 0 0 0 0 0 0 0 0 0 0 0 0 0 1 1 0 1 1 1 0 0 0 0 0 0 0 0
1 1 1 0 0 1 3 4 3 1 0 0 0 0 0 0 0 0 0 0 0 0 0 0 0 1 1 1 1 1 1 0 0 1 1 0 0 0 0 0 0 0 0
0 0 0 0 0 2 3 4 2 1 0 0 0 0 0 0 0 0 0 0 0 0 0 0 1 2 2 2 2 3 3 1 0 0 0 0 0 0 0 0 0 0 0
0 0 0 0 0 1 2 3 2 1 0 0 0 0 0 0 0 0 0 0 0 0 0 0 0 1 2 1 2 3 3 2 1 0 0 0 0 0 0 0 0 0 0
0 0 0 0 0 1 2 3 2 1 0 0 0 0 0 0 0 0 0 0 0 0 0 0 0 0 0 0 1 1 2 2 1 0 0 0 0 0 0 0 0 0 0
0 0 0 1 1 1 2 3 2 1 0 0 0 0 0 0 0 0 0 0 0 0 0 0 0 0 0 0 0 0 0 0 0 0 0 0 0 0 0 0 0 0 0
2 2 3 3 3 2 3 3 1 0 0 0 0 0 0 0 0 0 0 0 0 0 0 0 0 0 0 0 0 0 0 0 0 0 0 0 0 0 0 0 0 0 0
5 7 8 7 5 3 3 2 1 0 0 0 0 0 0 0 0 0 0 0 0 0 0 0 0 0 0 0 0 0 0 0 0 0 0 0 0 0 0 0 0 0 0
8 13 13 9 6 4 3 2 1 0 0 0 0 0 0 0 0 0 0 0 0 0 0 0 0 0 0 0 0 0 0 0 0 0 0 0 0 0 0 0 0 0 0
10 16 15 10 7 4 3 2 1 0 0 0 0 0 0 0 0 0 0 0 0 0 0 0 0 0 0 0 0 0 0 0 0 0 0 0 0 0 0 0 0 0 0
15 18 16 11 8 5 3 2 1 0 0 0 0 0 0 0 0 0 0 0 0 0 0 0 0 0 0 0 0 0 0 0 0 0 0 0 0 0 0 0 0 0 0
26 26 21 14 9 6 4 3 1 0 0 0 0 0 0 0 0 0 0 0 0 0 0 0 0 0 0 0 0 0 0 0 0 0 0 0 0 0 0 0 0 0 0
41 37 29 19 12 7 6 5 3 2 0 0 0 0 0 0 1 2 1 0 0 0 0 0 0 0 0 0 0 0 0 0 0 0 0 0 0 0 0 0 0 0 0
53 47 38 28 18 11 7 6 6 5 3 2 2 1 1 2 4 5 4 2 1 1 1 0 0 0 0 0 1 0 0 0 0 0 0 0 0 0 0 0 0 0 0
58 55 49 40 28 17 10 9 9 8 7 7 6 5 4 3 5 6 5 4 4 3 1 0 0 0 0 1 2 1 0 0 0 0 0 0 0 0 0 0 0 0 0
60 61 57 48 34 20 10 8 9 9 13 15 14 11 8 4 2 2 2 3 3 2 1 0 0 0 0 1 3 2 0 0 0 0 0 0 0 0 0 0 0 0 0
66 64 59 49 35 18 6 4 6 10 18 24 23 20 13 5 1 0 0 1 1 1 1 0 0 0 0 1 2 2 0 0 0 0 0 0 0 0 0 0 0 0 0
65 64 58 48 37 21 6 1 3 8 16 23 27 26 19 9 4 2 2 1 0 0 0 0 0 0 0 0 1 1 0 0 0 0 0 0 0 0 0 0 0 0 0
55 55 52 46 40 25 8 0 1 3 6 12 17 19 18 13 6 3 3 2 0 0 0 0 0 0 0 0 0 0 0 0 0 0 0 0 0 0 0 0 0 0 0
44 43 40 38 36 25 9 1 0 0 1 2 4 6 9 8 5 2 1 1 0 0 0 0 0 0 0 0 0 0 0 0 0 0 0 0 0 0 0 0 0 0 0
37 36 33 30 29 22 9 1 0 0 0 0 0 0 1 2 1 0 0 0 0 0 0 0 0 0 0 0 0 0 0 0 0 0 0 0 0 0 0 0 0 0 0
Wind_Speed
2 2 2 1 1 0 1 0 1 1 1 1 1 1 2 2 2 3 5 9 10 9 9 10 10 10 10 9 9 9 9 8 7 7 7 8 8 8 7 7 6 7 6
2 2 1 0 0 1 2 1 1 0 0 1 1 0 1 1 2 2 3 6 9 10 10 10 10 10 10 10 10 9 9 9 8 8 8 8 8 8 8 7 7 7 6
2 1 1 1 1 1 1 1 0 0 1 1 1 1 1 0 1 1 1 3 5 8 9 9 10 10 10 11 11 10 10 9 8 8 8 8 8 8 8 8 7 7 7
2 1 1 3 1 0 1 1 0 0 1 0 1 0 1 1 1 1 1 2 2 4 7 10 10 10 10 11 12 12 11 10 9 9 9 9 9 9 9 9 8 8 8
1 1 3 2 1 0 1 1 3 2 2 2 1 1 0 1 1 1 1 1 1 2 4 8 10 10 11 12 12 12 11 10 10 10 10 10 11 10 10 10 10 9 9
2 2 2 1 2 2 2 3 2 1 1 2 2 2 1 1 1 1 0 1 1 1 3 5 5 7 10 11 11 12 13 13 11 11 10 10 11 11 11 11 11 11 10
2 2 2 1 1 3 3 2 2 1 1 1 1 1 2 2 2 1 1 1 1 1 2 3 3 3 4 9 9 11 13 14 13 12 11 10 10 10 11 12 12 12 12
2 2 1 1 3 2 3 2 2 2 1 1 1 2 1 2 1 2 2 1 2 1 1 2 2 3 2 3 5 9 10 12 13 13 12 11 11 10 10 11 12 13 13
2 3 1 2 0 1 3 1 2 2 2 1 1 2 2 2 2 2 1 3 2 1 1 1 3 2 2 2 2 4 6 6 10 12 12 12 12 11 11 11 12 13 13
3 3 2 2 1 2 2 1 3 2 1 2 1 1 1 1 1 1 1 3 3 2 1 1 2 2 2 3 4 5 4 3 5 7 9 10 10 11 12 12 13 13 13
4 4 4 3 1 1 2 3 2 2 2 3 2 1 1 1 2 1 1 1 2 2 3 2 0 1 2 3 4 5 5 3 1 3 5 7 8 9 9 11 13 13 14
4 5 4 3 3 2 2 2 1 0 1 3 3 3 2 1 2 1 1 1 1 1 3 2 1 0 1 2 5 8 6 4 2 1 3 4 6 8 8 9 10 12 13
5 6 6 5 3 3 3 2 2 1 1 0 2 3 3 2 2 2 2 3 2 1 2 3 3 2 2 3 5 7 7 6 5 3 3 3 5 6 7 8 9 10 11
4 7 6 6 5 4 4 4 3 4 2 2 3 1 2 3 2 2 2 2 3 3 2 2 3 3 2 3 5 5 5 7 7 6 5 5 5 6 6 7 7 8 8
4 8 7 6 6 5 4 4 3 3 3 3 3 4 3 3 2 2 2 1 2 3 3 1 1 2 3 3 7 4 3 7 9 9 8 8 7 7 7 7 8 8 8
3 6 7 7 6 6 6 5 4 4 4 4 3 3 3 3 3 2 2 2 2 2 3 2 1 1 2 2 5 4 4 7 11 12 12 11 10 10 9 9 9 9 9
4 5 6 6 7 7 7 6 6 5 6 5 5 5 5 4 3 3 2 3 3 3 4 4 3 2 2 3 3 3 4 5 6 14 15 14 13 12 11 11 10 10 10
6 6 6 7 7 8 7 7 8 7 6 6 6 6 6 5 6 5 4 4 4 4 4 5 4 4 4 5 5 5 6 7 6 9 13 14 15 15 14 13 12 12 12
7 7 8 8 8 7 8 8 8 7 7 7 7 7 7 7 7 5 6 5 4 5 4 5 5 5 4 5 5 6 7 6 8 8 11 15 16 16 15 15 15 14 14
8 8 8 8 8 8 8 8 8 8 8 8 7 7 7 8 8 7 7 7 6 6 5 5 5 5 5 5 4 4 5 5 6 8 7 8 12 17 18 18 17 17 16
9 8 7 7 8 8 9 9 8 10 9 9 8 8 9 10 11 9 9 7 7 7 6 6 7 6 6 5 4 4 5 5 5 5 5 5 6 7 10 15 17 18 17
6 6 7 8 8 9 10 12 9 8 7 8 9 9 10 11 13 15 16 14 11 9 8 7 7 7 7 6 5 5 4 4 5 4 4 5 4 5 5 6 12 18 19
3 3 4 5 6 6 7 8 10 7 7 7 7 7 10 12 11 11 13 17 17 19 17 11 11 11 9 6 5 6 6 6 6 4 3 5 4 5 5 7 12 14 17
1 2 3 4 4 5 5 6 7 7 8 8 8 8 8 9 11 9 9 11 12 13 16 15 14 14 13 9 8 8 7 7 7 6 6 7 6 6 7 6 10 13 16
2 3 3 3 3 3 2 3 4 4 6 8 8 9 10 10 11 12 11 11 11 10 14 18 19 19 20 19 13 7 7 8 9 7 7 9 8 7 7 7 8 14 17
3 3 3 3 3 2 1 2 4 4 5 6 6 8 10 9 9 9 9 10 12 11 11 12 12 14 16 16 18 14 11 11 10 9 7 7 7 6 7 6 6 6 9
Wind_Direction
64 77 72 38 308 78 124 149 91 85 132 209 277 297 358 349 10 84 131 157 164 170 175 181 185 188 188 187 186 184 181 181 178 177 179 177 174 173 172 169 163 161 158
69 59 105 104 2 57 49 3 52 95 116 114 278 341 322 332 30 80 147 166 177 179 181 185 190 194 196 195 194 194 190 190 186 185 187 188 185 183 184 182 179 174 171
72 33 134 138 59 76 134 212 284 220 202 177 178 193 214 83 16 17 167 169 177 186 188 191 193 196 200 202 202 199 197 197 193 193 193 193 194 193 192 191 189 184 182
54 339 53 79 22 226 173 161 125 349 35 52 117 323 106 135 164 225 234 189 171 174 191 196 196 197 199 206 208 205 203 202 199 201 200 198 200 201 200 198 197 194 193
63 29 65 58 280 156 74 53 67 30 10 11 281 180 122 113 139 215 187 187 146 160 176 189 195 199 205 210 210 208 207 206 207 209 210 208 206 205 205 204 203 202 200
59 13 111 51 324 61 64 60 55 47 344 319 326 75 55 107 112 72 318 149 151 168 154 170 182 202 212 215 212 209 210 209 213 217 220 219 215 211 209 209 208 207 207
89 7 75 122 32 72 54 47 32 281 240 13 312 243 188 166 143 124 71 49 88 97 116 139 164 173 201 212 211 209 212 214 216 220 223 222 222 219 216 215 213 211 212
162 145 73 136 78 99 72 44 42 338 317 105 312 294 192 151 234 145 137 136 75 42 114 133 140 148 182 168 195 207 212 215 219 222 223 221 223 225 222 221 219 217 215
126 60 72 57 20 160 111 57 17 353 348 358 49 358 352 47 165 138 146 112 114 43 42 140 155 150 155 139 150 183 205 214 224 228 228 225 224 225 225 226 226 223 221
162 154 135 98 349 62 118 194 96 349 326 312 135 126 110 27 336 125 195 147 165 161 109 3 75 125 126 122 123 129 153 186 226 234 233 232 229 227 227 227 230 229 227
183 174 160 156 198 93 95 66 70 2 343 348 348 6 66 233 258 269 161 163 198 173 155 162 175 134 130 135 130 122 127 132 181 236 241 240 237 235 234 233 235 236 234
187 183 175 174 199 167 138 131 135 190 26 15 351 344 342 334 331 334 335 256 212 166 148 141 170 197 167 140 131 135 144 152 166 216 251 253 248 244 242 242 243 245 244
182 179 181 176 198 174 173 172 189 255 198 41 313 316 339 343 357 354 346 330 339 280 189 190 185 185 199 131 132 154 170 173 185 206 236 259 264 260 253 251 252 255 254
180 164 172 177 195 193 198 181 215 203 189 211 256 291 318 305 335 331 328 337 323 302 251 195 166 172 157 130 150 184 185 191 199 210 226 243 253 258 257 257 257 258 261
177 159 172 181 190 199 211 189 223 231 180 201 231 215 226 270 254 266 283 287 294 308 314 252 196 156 160 165 165 201 211 207 209 216 224 231 238 244 249 252 252 251 252
193 161 175 184 192 193 198 212 226 218 215 219 234 260 244 273 282 255 247 256 257 267 284 317 294 217 183 222 180 214 238 227 220 223 227 228 231 235 240 244 248 248 248
198 187 188 191 196 199 198 202 226 229 212 219 228 229 224 236 266 290 271 247 241 240 256 273 280 279 214 226 226 233 249 240 232 230 227 226 227 229 233 237 240 243 245
206 200 198 202 206 206 203 204 216 230 226 221 225 231 232 231 221 234 256 265 256 245 246 266 273 272 255 228 220 222 245 256 253 242 225 222 223 226 229 232 235 237 239
209 209 203 206 211 214 208 208 213 224 231 231 227 227 228 233 235 230 230 241 250 254 235 243 253 247 246 241 231 229 239 244 257 257 231 223 223 226 228 230 232 234 236
209 213 211 211 211 216 218 215 215 220 226 233 234 233 232 229 231 231 237 235 240 251 256 254 254 251 244 236 221 221 240 236 240 251 247 226 220 224 228 229 231 233 233
217 214 216 217 218 219 222 218 219 223 222 228 233 235 238 238 236 235 240 237 233 235 240 245 249 248 243 233 226 218 233 240 237 233 237 234 218 219 224 232 235 236 234
223 218 217 221 224 231 230 221 219 232 230 230 235 236 241 241 240 237 239 242 243 244 246 246 251 250 248 241 235 234 237 243 254 241 234 241 231 229 225 221 224 225 228
230 239 237 235 237 242 245 230 224 233 244 247 247 245 251 253 245 238 235 235 240 243 241 244 254 256 258 259 256 251 243 243 248 248 265 264 250 247 243 253 247 230 223
281 263 262 261 262 265 258 242 236 240 254 257 258 257 257 259 262 260 256 247 238 238 237 237 242 249 252 253 254 256 256 258 254 244 235 253 252 249 253 247 246 235 223
331 303 286 281 275 282 275 248 235 255 260 263 264 265 263 262 261 261 262 263 260 253 247 240 231 234 237 241 243 252 252 252 255 247 225 234 239 240 238 237 238 233 225
333 320 315 308 297 281 276 249 227 260 275 281 279 273 268 272 282 281 271 269 266 264 265 265 250 243 242 244 236 233 240 246 251 252 236 233 236 234 244 234 231 229 223